Location: *
(35.2348°S, 91.3916°E)
Time: 16:24:41
(UTC+00:00)

YAOGAN 6 - Pass Details

Date: 23 October 2019
Orbit: 465 x 506 km, 97.0° (Epoch: 17 November)

Event Time Altitude Azimuth Distance (km) Brightness Sun altitude
Rises 13:05:55 0° 173° (S) 2,640 6.5 -10.5°
Reaches altitude 10° 13:08:03 10° 176° (S) 1,749 5.6 -10.9°
Maximum altitude 13:11:47 64° 257° (WSW) 575 3.2 -11.6°
Drops below altitude 10° 13:15:28 10° 338° (NNW) 1,725 5.3 -12.3°
Sets 13:17:33 0° 341° (NNW) 2,600 6.2 -12.7°
